KA2FNK Weather Reports


Display with metric or nautical units.
time (UTC)temp
F
wind
direction
speed
MPH
gust
MPH
rain 1hr
in
rain 24hr
in
rain mn
in
humidity
%
barometer
mb
20260507144325 59 126 0.0 7.0 0.00 0.00 0.00 64 1016.1
20260507143824 58 248 4.0 7.0 0.00 0.00 0.00 63 1016.1
20260507143322 58 212 2.0 7.0 0.00 0.00 0.00 63 1016.0
20260507142821 58 262 4.0 7.0 0.00 0.00 0.00 64 1016.1
20260507142320 57 225 1.0 8.0 0.00 0.00 0.00 64 1016.0
20260507141819 57 244 2.0 5.0 0.00 0.00 0.00 63 1016.1
20260507141318 57 241 0.0 11.0 0.00 0.00 0.00 63 1016.2
20260507140818 57 219 0.0 5.0 0.00 0.00 0.00 65 1016.3
20260507140316 57 178 4.0 4.0 0.00 0.00 0.00 66 1016.2
20260507135815 57 154 0.0 3.0 0.00 0.00 0.00 67 1016.2
20260507135315 56 233 1.0 5.0 0.00 0.00 0.00 67 1016.2
20260507134813 56 201 0.0 4.0 0.00 0.00 0.00 69 1016.2
20260507134313 56 215 0.0 3.0 0.00 0.00 0.00 69 1016.2
20260507133812 55 258 0.0 5.0 0.00 0.00 0.00 71 1016.2
20260507133310 55 139 0.0 6.0 0.00 0.00 0.00 70 1016.2
20260507132809 54 194 0.0 5.0 0.00 0.00 0.00 73 1016.3
20260507132308 53 199 3.0 5.0 0.00 0.00 0.00 72 1016.4
20260507131808 53 139 0.0 2.0 0.00 0.00 0.00 74 1016.5
20260507131306 53 139 0.0 0.0 0.00 0.00 0.00 74 1016.5
20260507130805 52 139 0.0 1.0 0.00 0.00 0.00 75 1016.5
20260507130305 52 199 0.0 7.0 0.00 0.00 0.00 75 1016.5
20260507125803 51 239 0.0 2.0 0.00 0.01 0.00 76 1016.4
20260507125306 50 234 0.0 0.0 0.00 0.01 0.00 77 1016.5
20260507124801 50 199 0.0 1.0 0.00 0.01 0.00 77 1016.5
20260507124300 49 201 0.0 2.0 0.00 0.01 0.00 77 1016.6
20260507123800 49 225 1.0 2.0 0.00 0.01 0.00 78 1016.5
20260507123258 49 9 0.0 2.0 0.00 0.01 0.00 78 1016.5
20260507122758 48 9 0.0 0.0 0.00 0.01 0.00 79 1016.5
20260507122256 48 9 0.0 0.0 0.00 0.01 0.00 79 1016.6
20260507121757 47 9 0.0 0.0 0.00 0.01 0.00 79 1016.5
20260507121254 47 9 0.0 0.0 0.00 0.01 0.00 80 1016.5
20260507120752 47 9 0.0 2.0 0.00 0.01 0.00 80 1016.4
20260507120251 47 9 0.0 0.0 0.00 0.01 0.00 80 1016.5
20260507115751 47 9 0.0 0.0 0.00 0.01 0.00 80 1016.4
20260507115249 47 9 0.0 0.0 0.00 0.01 0.00 80 1016.4
20260507114748 46 9 0.0 0.0 0.00 0.01 0.00 81 1016.3
20260507114247 46 9 0.0 0.0 0.00 0.01 0.00 81 1016.4
20260507113747 46 9 0.0 0.0 0.00 0.01 0.00 80 1016.4
20260507113246 46 9 0.0 0.0 0.00 0.01 0.00 80 1016.4
20260507112744 46 9 0.0 0.0 0.00 0.01 0.00 79 1016.4
20260507112243 46 9 0.0 0.0 0.00 0.01 0.00 79 1016.3
20260507111742 46 9 0.0 0.0 0.00 0.01 0.00 78 1016.3
20260507111241 46 9 0.0 0.0 0.00 0.01 0.00 78 1016.2
20260507110740 46 9 0.0 0.0 0.00 0.01 0.00 78 1016.2
20260507110239 46 9 0.0 0.0 0.00 0.01 0.00 78 1016.2
20260507105738 46 9 0.0 0.0 0.00 0.01 0.00 77 1016.2
20260507105237 46 9 0.0 0.0 0.00 0.01 0.00 77 1016.2
20260507104736 46 9 0.0 0.0 0.00 0.01 0.00 77 1016.2
20260507104235 46 9 0.0 0.0 0.00 0.01 0.00 77 1016.2
20260507103734 46 9 0.0 0.0 0.00 0.01 0.00 77 1016.2
20260507103233 46 9 0.0 0.0 0.00 0.01 0.00 76 1016.2
20260507102732 46 9 0.0 0.0 0.00 0.01 0.00 76 1016.2
20260507102231 46 9 0.0 0.0 0.00 0.01 0.00 76 1016.3
20260507101730 47 9 0.0 0.0 0.00 0.01 0.00 1016.3
20260507101229 46 9 0.0 0.0 0.00 0.01 0.00 66 1016.2
20260507100728 46 9 0.0 0.0 0.00 0.01 0.00 66 1016.2
20260507100227 47 9 0.0 0.0 0.00 0.01 0.00 66 1016.2
20260507095726 46 9 0.0 0.0 0.00 0.01 0.00 66 1016.3
20260507095225 46 9 0.0 0.0 0.00 0.01 0.00 66 1016.3
20260507094724 46 9 0.0 0.0 0.00 0.01 0.00 66 1016.3
20260507094223 46 9 0.0 0.0 0.00 0.01 0.00 66 1016.4
20260507093722 46 9 0.0 0.0 0.00 0.01 0.00 65 1016.4
20260507093221 46 9 0.0 0.0 0.00 0.01 0.00 66 1016.4
20260507092721 46 9 0.0 0.0 0.00 0.01 0.00 66 1016.5
20260507092219 46 9 0.0 0.0 0.00 0.01 0.00 66 1016.5
20260507091718 46 9 0.0 0.0 0.00 0.01 0.00 66 1016.5
20260507091217 47 9 0.0 0.0 0.00 0.01 0.00 65 1016.6
20260507090716 47 9 0.0 0.0 0.00 0.01 0.00 65 1016.5
20260507090215 47 9 0.0 0.0 0.00 0.01 0.00 65 1016.5
20260507085714 47 9 0.0 0.0 0.00 0.01 0.00 65 1016.4
20260507085213 47 9 0.0 0.0 0.00 0.01 0.00 64 1016.5
20260507084712 46 9 0.0 0.0 0.00 0.01 0.00 65 1016.5
20260507084211 46 9 0.0 0.0 0.00 0.01 0.00 65 1016.6
20260507083710 46 9 0.0 0.0 0.00 0.01 0.00 65 1016.6
20260507083209 46 9 0.0 0.0 0.00 0.01 0.00 65 1016.6
20260507082708 46 9 0.0 0.0 0.00 0.01 0.00 66 1016.6
20260507082207 46 9 0.0 0.0 0.00 0.01 0.00 66 1016.7
20260507081706 46 9 0.0 0.0 0.00 0.01 0.00 66 1016.7
20260507081205 46 9 0.0 0.0 0.00 0.01 0.00 66 1016.7
20260507080704 46 9 0.0 0.0 0.00 0.01 0.00 65 1016.6
20260507080203 46 9 0.0 0.0 0.00 0.01 0.00 65 1016.5
20260507075702 47 9 0.0 0.0 0.00 0.01 0.00 65 1016.5
20260507075201 47 9 0.0 0.0 0.00 0.01 0.00 65 1016.5
20260507074700 47 9 0.0 0.0 0.00 0.01 0.00 65 1016.5
20260507074159 47 9 0.0 0.0 0.00 0.01 0.00 65 1016.5
20260507073658 47 9 0.0 0.0 0.00 0.01 0.00 64 1016.6
20260507073157 47 9 0.0 0.0 0.00 0.01 0.00 64 1016.6
20260507072656 48 9 0.0 0.0 0.00 0.01 0.00 63 1016.6
20260507072155 48 9 0.0 0.0 0.00 0.01 0.00 63 1016.8
20260507071654 48 9 0.0 0.0 0.00 0.01 0.00 62 1016.8
20260507071153 48 9 0.0 0.0 0.00 0.01 0.00 61 1016.8
20260507070652 48 9 0.0 0.0 0.00 0.01 0.00 61 1016.9
20260507070151 49 9 0.0 0.0 0.00 0.01 0.00 60 1017.0
20260507065650 49 9 0.0 0.0 0.00 0.01 0.00 60 1017.0
20260507065149 49 9 0.0 0.0 0.00 0.01 0.00 60 1017.1
20260507064648 49 9 0.0 0.0 0.00 0.01 0.00 60 1017.1
20260507064147 49 9 0.0 0.0 0.00 0.01 0.00 59 1017.2
20260507063646 49 9 0.0 0.0 0.00 0.01 0.00 59 1017.2
20260507063145 49 9 0.0 0.0 0.00 0.01 0.00 58 1017.3
20260507062644 49 9 0.0 0.0 0.00 0.01 0.00 59 1017.2
20260507062143 49 9 0.0 0.0 0.00 0.01 0.00 60 1017.2
20260507061642 49 9 0.0 0.0 0.00 0.01 0.00 61 1017.2
20260507061141 49 9 0.0 0.0 0.00 0.01 0.00 61 1017.1
20260507060640 49 9 0.0 0.0 0.00 0.01 0.00 62 1017.2
20260507060139 49 9 0.0 0.0 0.00 0.01 0.00 63 1017.2
20260507055638 49 9 0.0 0.0 0.00 0.01 0.00 63 1017.2
20260507055137 48 9 0.0 0.0 0.00 0.01 0.00 62 1017.2
20260507054636 48 9 0.0 0.0 0.00 0.01 0.00 63 1017.2
20260507054135 48 9 0.0 0.0 0.00 0.01 0.00 63 1017.3
20260507053634 48 9 0.0 0.0 0.00 0.01 0.00 62 1017.4
20260507053133 48 9 0.0 0.0 0.00 0.01 0.00 62 1017.3
20260507052632 48 9 0.0 0.0 0.00 0.01 0.00 62 1017.3
20260507052131 48 9 0.0 0.0 0.00 0.01 0.00 63 1017.3
20260507051630 48 9 0.0 0.0 0.00 0.01 0.00 62 1017.3
20260507051129 48 9 0.0 0.0 0.00 0.01 0.00 62 1017.3
20260507050628 48 9 0.0 0.0 0.00 0.01 0.00 62 1017.3
20260507050127 48 9 0.0 0.0 0.00 0.01 0.00 63 1017.4
20260507045626 48 9 0.0 0.0 0.00 0.01 0.01 63 1017.3
20260507045125 48 9 0.0 0.0 0.00 0.01 0.01 69 1017.3
20260507044624 48 9 0.0 0.0 0.00 0.01 0.01 70 1017.3
20260507044123 48 9 0.0 0.0 0.00 0.01 0.01 71 1017.3
20260507043622 48 9 0.0 0.0 0.00 0.01 0.01 70 1017.3
20260507043121 48 9 0.0 0.0 0.00 0.01 0.01 71 1017.2
20260507042620 48 9 0.0 0.0 0.00 0.01 0.01 69 1017.2
20260507042119 48 9 0.0 0.0 0.00 0.01 0.01 71 1017.2
20260507041618 48 9 0.0 0.0 0.00 0.01 0.01 71 1017.3
20260507041117 48 9 0.0 0.0 0.00 0.01 0.01 71 1017.3
20260507040616 48 9 0.0 0.0 0.00 0.01 0.01 72 1017.5
20260507040115 48 9 0.0 0.0 0.00 0.01 0.01 71 1017.4
20260507035614 48 9 0.0 0.0 0.00 0.01 0.01 71 1017.5
20260507035113 48 9 0.0 0.0 0.00 0.01 0.01 61 1017.6
20260507034612 48 9 0.0 0.0 0.00 0.01 0.01 61 1017.6
20260507034111 48 9 0.0 0.0 0.00 0.01 0.01 60 1017.6
20260507033610 49 9 0.0 0.0 0.00 0.01 0.01 60 1017.5
20260507033109 49 9 0.0 0.0 0.00 0.01 0.01 60 1017.4
20260507032608 49 9 0.0 0.0 0.00 0.01 0.01 61 1017.4
20260507032107 49 9 0.0 0.0 0.00 0.01 0.01 62 1017.4
20260507031606 49 9 0.0 0.0 0.00 0.01 0.01 62 1017.4
20260507031105 49 9 0.0 0.0 0.00 0.01 0.01 62 1017.5
20260507030605 49 9 0.0 0.0 0.00 0.01 0.01 61 1017.5
20260507025602 49 9 0.0 0.0 0.00 0.03 0.01 59 1017.5
20260507025102 49 9 0.0 0.0 0.00 0.03 0.01 58 1017.4
20260507024600 49 9 0.0 0.0 0.00 0.03 0.01 59 1017.4
20260507024059 50 9 0.0 0.0 0.00 0.03 0.01 57 1017.3
20260507023558 50 9 0.0 0.0 0.00 0.03 0.01 55 1017.3
20260507023057 50 9 0.0 0.0 0.00 0.03 0.01 53 1017.3
20260507022556 50 9 0.0 0.0 0.00 0.03 0.01 54 1017.2
20260507022055 51 9 0.0 0.0 0.00 0.03 0.01 52 1017.2
20260507021554 51 9 0.0 0.0 0.00 0.03 0.01 51 1017.1
20260507021053 51 9 0.0 0.0 0.00 0.03 0.01 50 1017.1
20260507020552 51 9 0.0 0.0 0.00 0.03 0.01 49 1017.1
20260507020051 52 9 0.0 0.0 0.00 0.03 0.01 49 1017.0
20260507015550 52 9 0.0 0.0 0.00 0.03 0.01 49 1017.0
20260507015049 52 9 0.0 0.0 0.00 0.03 0.01 49 1016.9
20260507014548 53 9 0.0 0.0 0.00 0.03 0.01 47 1016.9
20260507014047 53 9 0.0 0.0 0.00 0.03 0.01 46 1017.0
20260507013547 53 9 0.0 0.0 0.00 0.03 0.01 47 1016.9
20260507013046 54 9 0.0 0.0 0.00 0.03 0.01 45 1016.9
20260507012544 54 9 0.0 0.0 0.00 0.03 0.01 45 1016.8
20260507012043 54 9 0.0 0.0 0.00 0.03 0.01 44 1016.8
20260507011542 55 9 0.0 0.0 0.00 0.03 0.01 43 1016.7
20260507011042 55 9 0.0 0.0 0.00 0.03 0.01 42 1016.7
20260507010540 55 9 0.0 0.0 0.00 0.03 0.01 41 1016.7
20260507010039 56 9 0.0 0.0 0.00 0.03 0.01 40 1016.6
20260507005539 56 9 0.0 0.0 0.00 0.03 0.01 39 1016.7
20260507005038 56 9 0.0 0.0 0.00 0.03 0.01 40 1016.6
20260507004537 56 9 0.0 0.0 0.00 0.03 0.01 39 1016.7
20260507004035 56 9 0.0 0.0 0.00 0.03 0.01 38 1016.6
20260507003534 57 9 0.0 0.0 0.00 0.03 0.01 37 1016.6
20260507003034 56 9 0.0 0.0 0.00 0.03 0.01 37 1016.6
20260507002533 57 9 0.0 3.0 0.00 0.03 0.01 37 1016.6
20260507002032 57 324 0.0 4.0 0.00 0.03 0.01 38 1016.6
20260507001530 57 313 0.0 3.0 0.00 0.03 0.01 36 1016.6
20260507001030 57 306 0.0 0.0 0.00 0.03 0.01 35 1016.6
20260507000529 57 306 0.0 5.0 0.00 0.03 0.01 35 1016.7
20260507000026 57 347 2.0 3.0 0.00 0.03 0.01 37 1016.7
20260506235525 57 4 1.0 6.0 0.00 0.03 0.01 38 1016.7
20260506235024 57 5 0.0 5.0 0.00 0.03 0.01 36 1016.6
20260506234523 57 23 0.0 0.0 0.00 0.03 0.01 35 1016.7
20260506234022 57 23 0.0 0.0 0.00 0.03 0.01 36 1016.7
20260506233521 57 23 0.0 3.0 0.00 0.03 0.01 37 1016.6
20260506233020 57 343 0.0 0.0 0.00 0.03 0.01 34 1016.7
20260506232520 57 343 0.0 7.0 0.00 0.03 0.01 35 1016.7
20260506232019 58 292 0.0 4.0 0.00 0.03 0.01 36 1016.7
20260506231518 58 322 0.0 1.0 0.00 0.03 0.01 34 1016.6
20260506231016 57 347 0.0 5.0 0.00 0.03 0.01 35 1016.7
20260506230515 58 18 0.0 0.0 0.00 0.03 0.01 36 1016.6
20260506230014 58 18 0.0 4.0 0.00 0.03 0.01 36 1016.7
20260506225514 57 49 3.0 10.0 0.00 0.03 0.01 34 1016.7
20260506225013 57 8 1.0 8.0 0.00 0.03 0.01 34 1016.7
20260506224511 57 327 3.0 15.0 0.00 0.03 0.01 36 1016.7
20260506224011 58 14 7.0 9.0 0.00 0.03 0.01 35 1016.6
20260506223509 58 354 4.0 11.0 0.00 0.03 0.01 35 1016.8
20260506223008 58 334 2.0 7.0 0.00 0.03 0.01 37 1016.8
20260506222508 58 274 0.0 6.0 0.00 0.03 0.01 36 1016.9
20260506222005 58 343 3.0 4.0 0.00 0.03 0.01 35 1016.9
20260506221504 58 319 0.0 5.0 0.00 0.03 0.01 35 1016.9
20260506221003 58 11 2.0 10.0 0.00 0.03 0.01 36 1016.9
20260506220502 58 299 0.0 8.0 0.00 0.03 0.01 37 1016.9
20260506220002 58 322 3.0 6.0 0.00 0.03 0.01 35 1017.0
20260506215501 58 355 0.0 10.0 0.00 0.03 0.01 38 1016.9
20260506215000 58 351 0.0 10.0 0.00 0.03 0.01 36 1016.9
20260506214458 58 319 7.0 10.0 0.00 0.03 0.01 35 1017.1
20260506213958 58 315 0.0 13.0 0.00 0.03 0.01 37 1017.1
20260506213457 58 64 4.0 13.0 0.00 0.03 0.01 37 1017.0
20260506212955 58 2 4.0 5.0 0.00 0.03 0.01 39 1017.1
20260506212454 58 350 0.0 3.0 0.00 0.03 0.01 38 1017.1
20260506211954 58 19 2.0 8.0 0.00 0.03 0.01 39 1017.1
20260506211452 58 25 4.0 11.0 0.00 0.03 0.01 37 1017.2
20260506210951 58 26 1.0 13.0 0.00 0.03 0.01 36 1017.5
20260506210450 58 5 3.0 5.0 0.00 0.03 0.01 38 1017.5
20260506205949 57 336 0.0 9.0 0.00 0.03 0.01 36 1017.6
20260506205448 58 333 4.0 5.0 0.00 0.03 0.01 38 1017.7
20260506204947 58 326 3.0 12.0 0.00 0.03 0.01 34 1017.7
20260506204447 58 310 1.0 5.0 0.00 0.03 0.01 38 1017.7
20260506203945 58 307 5.0 9.0 0.00 0.03 0.01 38 1017.7
20260506203443 58 322 0.0 8.0 0.00 0.03 0.01 40 1017.7
20260506202942 58 312 1.0 4.0 0.00 0.03 0.01 38 1017.8
20260506202441 57 29 3.0 7.0 0.00 0.03 0.01 40 1018.0
20260506201940 57 333 1.0 11.0 0.00 0.03 0.01 36 1018.0
20260506201439 57 35 0.0 7.0 0.00 0.03 0.01 40 1018.1
20260506200939 57 333 1.0 7.0 0.00 0.03 0.01 39 1018.1
20260506200437 57 344 1.0 10.0 0.00 0.03 0.01 41 1018.2
20260506195937 57 358 0.0 10.0 0.00 0.03 0.01 38 1018.2
20260506195436 57 348 0.0 6.0 0.00 0.03 0.01 39 1018.3
20260506194935 56 8 6.0 11.0 0.00 0.03 0.01 36 1018.2
20260506194434 57 358 8.0 12.0 0.00 0.03 0.01 38 1018.3
20260506193933 57 15 0.0 6.0 0.00 0.03 0.01 37 1018.2
20260506193431 57 2 0.0 0.0 0.00 0.03 0.01 41 1018.2
20260506192930 57 2 0.0 6.0 0.00 0.03 0.01 41 1018.2
20260506192429 56 14 2.0 12.0 0.00 0.03 0.01 41 1018.2
20260506191929 56 21 3.0 8.0 0.00 0.03 0.01 37 1018.3
20260506191427 56 64 0.0 6.0 0.00 0.03 0.01 36 1018.3
20260506190926 56 28 1.0 3.0 0.00 0.03 0.01 42 1018.3
20260506190425 56 78 0.0 7.0 0.00 0.03 0.01 40 1018.3
20260506185924 56 25 6.0 7.0 0.00 0.03 0.01 38 1018.4
20260506185423 56 8 0.0 8.0 0.00 0.03 0.01 41 1018.5
20260506184922 55 7 10.0 15.0 0.00 0.03 0.01 39 1018.4
20260506184421 55 22 0.0 7.0 0.00 0.03 0.01 39 1018.5
20260506183921 56 333 0.0 4.0 0.00 0.03 0.01 40 1018.5
20260506183419 55 223 1.0 5.0 0.00 0.03 0.01 41 1018.6
20260506182918 55 352 0.0 7.0 0.00 0.03 0.01 43 1018.7
20260506182418 54 18 4.0 9.0 0.00 0.03 0.01 40 1018.8
20260506181916 54 18 0.0 0.0 0.00 0.03 0.01 40 1018.8
20260506181416 54 18 0.0 2.0 0.00 0.03 0.01 42 1018.8
20260506180914 54 336 3.0 6.0 0.00 0.03 0.01 40 1018.8
20260506180413 54 341 2.0 6.0 0.00 0.03 0.01 40 1018.9
20260506175912 54 35 2.0 7.0 0.00 0.03 0.01 45 1018.9
20260506175411 54 358 5.0 8.0 0.00 0.03 0.01 42 1018.9
20260506174911 54 312 0.0 9.0 0.00 0.03 0.01 43 1018.9
20260506174410 54 358 1.0 10.0 0.00 0.03 0.01 41 1018.9
20260506173909 54 350 0.0 8.0 0.00 0.03 0.01 40 1018.9
20260506173408 54 305 0.0 5.0 0.00 0.03 0.01 41 1018.9
20260506172906 54 338 1.0 8.0 0.00 0.03 0.01 42 1018.9
20260506172406 55 336 0.0 5.0 0.00 0.03 0.01 42 1018.9
20260506171905 54 1 3.0 10.0 0.00 0.03 0.01 43 1018.9
20260506171403 54 312 0.0 7.0 0.00 0.03 0.01 42 1018.9
20260506170903 54 40 0.0 11.0 0.00 0.03 0.01 41 1019.0
20260506170402 54 341 4.0 8.0 0.00 0.03 0.01 38 1019.0
20260506165900 55 331 1.0 11.0 0.00 0.05 0.01 42 1018.9
20260506165359 54 313 0.0 5.0 0.00 0.05 0.01 46 1018.9
20260506164859 54 307 2.0 13.0 0.00 0.05 0.01 40 1019.0
20260506164357 54 45 7.0 10.0 0.00 0.05 0.01 42 1018.9
20260506163857 54 2 0.0 11.0 0.00 0.05 0.01 42 1018.9
20260506163356 54 354 2.0 9.0 0.00 0.05 0.01 43 1018.9
20260506162854 54 326 2.0 10.0 0.00 0.05 0.01 43 1018.9
20260506162353 54 14 9.0 10.0 0.00 0.05 0.01 45 1018.9
20260506161852 54 281 1.0 9.0 0.00 0.05 0.01 44 1018.9
20260506161352 54 25 0.0 3.0 0.00 0.05 0.01 44 1018.8
20260506160850 54 358 0.0 15.0 0.00 0.05 0.01 45 1018.8
20260506160350 54 338 0.0 6.0 0.00 0.05 0.01 45 1018.7
20260506155849 54 327 7.0 10.0 0.00 0.07 0.01 47 1018.6
20260506155347 53 52 4.0 11.0 0.00 0.07 0.01 47 1018.6
20260506154846 53 12 6.0 9.0 0.00 0.07 0.01 47 1018.4
20260506154345 53 28 10.0 10.0 0.00 0.07 0.01 47 1018.5
20260506153844 53 348 2.0 7.0 0.01 0.07 0.01 46 1018.4
20260506153343 53 15 7.0 13.0 0.01 0.07 0.01 47 1018.4
20260506152842 53 9 2.0 12.0 0.01 0.07 0.01 45 1018.3
20260506152341 53 358 2.0 8.0 0.01 0.07 0.01 45 1018.3
20260506151840 53 330 1.0 6.0 0.01 0.07 0.01 45 1018.3
20260506151339 53 1 2.0 7.0 0.01 0.07 0.01 49 1018.2
20260506150838 53 340 3.0 8.0 0.01 0.07 0.01 54 1018.4
20260506150337 53 310 0.0 8.0 0.01 0.07 0.01 53 1018.3
20260506145836 52 23 3.0 9.0 0.01 0.10 0.01 52 1018.3
20260506145335 52 331 0.0 3.0 0.01 0.10 0.01 52 1018.4
20260506144834 52 15 1.0 2.0 0.01 0.10 0.01 58 1018.4